User: anonymous   Login
Location: Igri�s
(42.2144°N, 0.4320°W)
Time: 10:42:42
(UTC+00:00)
Language:

Cosmos 1633 Rocket - Orbit

View from above orbital plane
View from above orbital plane
View from above satellite
View from above satellite

Ground track
Ground track

The orbit data is extracted from the following two-line orbital elements,

1 15593U 85020B   20304.77872939 +.00000096 +00000-0 +86413-5 0  9991
2 15593 082.5403 190.0651 0010264 295.4273 064.5880 14.84400514905909
Epoch (UTC): 30 October 2020 18:41:22
Eccentricity: 0.0010264
inclination: 82.5403°
perigee height: 608 km
apogee height: 622 km
right ascension of ascending node: 190.0651°
argument of perigee: 295.4273°
revolutions per day: 14.84400514
mean anomaly at epoch: 64.5880°
orbit number at epoch: 90590

The dashed part of the orbit path shows where the satellite is in the earth's shadow,  

DLR